KN4URY Weather Reports


Display with metric or nautical units.
time (UTC)temp
F
wind
direction
speed
MPH
gust
MPH
rain 1hr
in
rain 24hr
in
rain mn
in
humidity
%
barometer
mb
20260503191849 63 341 2.0 11.0 0.00 0.00 0.00 38 1016.2
20260503191323 63 341 3.0 11.0 0.00 0.00 0.00 36 1016.3
20260503190824 64 341 3.0 7.0 0.00 0.00 0.00 34 1016.3
20260503190320 63 341 2.0 5.0 0.00 0.00 0.00 37 1016.4
20260503185818 62 341 2.0 12.0 0.00 0.00 0.00 37 1016.6
20260503185316 63 341 5.0 12.0 0.00 0.00 0.00 35 1016.7
20260503184815 62 341 2.0 10.0 0.00 0.00 0.00 41 1016.5
20260503184315 62 341 2.0 8.0 0.00 0.00 0.00 37 1016.6
20260503183816 62 341 2.0 9.0 0.00 0.00 0.00 37 1016.8
20260503183315 62 341 3.0 10.0 0.00 0.00 0.00 36 1016.9
20260503182814 62 341 3.0 9.0 0.00 0.00 0.00 38 1016.9
20260503182315 62 341 3.0 10.0 0.00 0.00 0.00 38 1016.9
20260503181813 61 341 4.0 12.0 0.00 0.00 0.00 38 1017.1
20260503181333 61 341 3.0 12.0 0.00 0.00 0.00 38 1017.0
20260503180833 63 341 3.0 8.0 0.00 0.00 0.00 37 1016.9
20260503180330 61 341 2.0 8.0 0.00 0.00 0.00 38 1017.1
20260503175828 60 341 2.0 8.0 0.00 0.00 0.00 40 1017.2
20260503175327 60 341 4.0 11.0 0.00 0.00 0.00 40 1017.2
20260503174852 60 341 5.0 13.0 0.00 0.00 0.00 40 1017.2
20260503174331 60 341 4.0 13.0 0.00 0.00 0.00 38 1017.3
20260503173831 61 341 2.0 6.0 0.00 0.00 0.00 38 1017.3
20260503173330 62 341 2.0 8.0 0.00 0.00 0.00 38 1017.3
20260503172856 61 341 2.0 10.0 0.00 0.00 0.00 38 1017.4
20260503172333 62 341 3.0 10.0 0.00 0.00 0.00 40 1017.3
20260503171830 62 341 2.0 7.0 0.00 0.00 0.00 40 1017.5
20260503171329 61 341 2.0 7.0 0.00 0.00 0.00 40 1017.5
20260503170830 61 341 3.0 6.0 0.00 0.00 0.00 41 1017.6
20260503170329 60 341 2.0 6.0 0.00 0.00 0.00 42 1017.6
20260503150819 55 341 1.0 9.0 0.00 0.00 0.00 48 1018.5
20260503150319 55 341 4.0 9.0 0.00 0.00 0.00 48 1018.5
20260503131335 48 341 3.0 9.0 0.00 0.00 0.00 59 1018.3
20260503130833 48 341 2.0 8.0 0.00 0.00 0.00 60 1018.4
20260503130311 47 341 4.0 8.0 0.00 0.00 0.00 60 1018.3
20260503110335 41 341 0.0 1.0 0.00 0.00 0.00 77 1017.0
20260503090318 42 341 0.0 1.0 0.00 0.00 0.00 84 1015.2
20260503081316 44 341 0.0 1.0 0.00 0.00 0.00 82 1014.7
20260503080843 44 341 0.0 1.0 0.00 0.00 0.00 81 1014.7
20260503080321 45 341 0.0 1.0 0.00 0.00 0.00 81 1014.6
20260503072822 46 341 0.0 1.0 0.00 0.00 0.00 80 1014.3
20260503072318 47 341 0.0 1.0 0.00 0.00 0.00 80 1014.3
20260503071818 47 341 0.0 1.0 0.00 0.00 0.00 80 1014.3
20260503071343 47 341 0.0 2.0 0.00 0.00 0.00 80 1014.2
20260503070821 47 341 0.0 3.0 0.00 0.00 0.00 79 1014.2
20260503070322 48 341 0.0 3.0 0.00 0.00 0.00 79 1014.0
20260503060314 49 341 0.0 2.0 0.00 0.00 0.00 77 1013.7
20260503054819 49 341 0.0 4.0 0.00 0.00 0.00 77 1013.7
20260503054319 49 341 1.0 3.0 0.00 0.00 0.00 77 1013.6
20260503053844 49 341 0.0 2.0 0.00 0.00 0.00 78 1013.7
20260503053317 49 341 0.0 2.0 0.00 0.00 0.00 78 1013.5
20260503052818 48 341 0.0 1.0 0.00 0.00 0.00 78 1013.5
20260503052316 48 341 0.0 1.0 0.00 0.00 0.00 80 1013.4
20260503051815 48 341 0.0 2.0 0.00 0.00 0.00 81 1013.5
20260503051314 48 341 0.0 2.0 0.00 0.00 0.00 83 1013.4
20260503050841 48 341 0.0 0.0 0.00 0.00 0.00 85 1013.3
20260503050320 48 341 0.0 0.0 0.00 0.00 0.00 84 1013.2
20260503045819 48 341 0.0 0.0 0.00 0.00 0.00 83 1013.2
20260503045319 48 341 0.0 0.0 0.00 0.00 0.00 81 1013.2
20260503044820 49 341 0.0 0.0 0.00 0.00 0.00 80 1013.1
20260503044312 49 341 0.0 0.0 0.00 0.00 0.00 79 1013.2
20260503043836 49 341 0.0 1.0 0.00 0.00 0.00 79 1013.2
20260503043316 49 341 0.0 1.0 0.00 0.00 0.00 78 1013.2
20260503042815 48 341 0.0 2.0 0.00 0.00 0.00 79 1013.3
20260503042315 48 341 0.0 3.0 0.00 0.00 0.00 80 1013.1
20260503041840 48 341 1.0 3.0 0.00 0.00 0.00 80 1013.2
20260503041322 48 341 0.0 0.0 0.00 0.00 0.00 79 1013.2
20260503040824 48 341 0.0 1.0 0.00 0.00 0.00 77 1013.1
20260503040320 48 341 0.0 2.0 0.00 0.00 0.00 76 1013.0
20260503035820 48 341 1.0 2.0 0.00 0.00 0.00 74 1013.1
20260503035346 49 341 0.0 1.0 0.00 0.00 0.00 72 1013.0
20260503034820 49 341 0.0 1.0 0.00 0.00 0.00 72 1013.0
20260503034346 49 341 0.0 1.0 0.00 0.00 0.00 74 1013.0
20260503033826 49 341 0.0 1.0 0.00 0.00 0.00 75 1013.0
20260503033325 49 341 0.0 1.0 0.00 0.00 0.00 77 1012.9
20260503032824 49 341 0.0 1.0 0.00 0.00 0.00 77 1012.8
20260503032326 50 341 0.0 1.0 0.00 0.00 0.00 75 1012.7
20260503031852 50 341 0.0 1.0 0.00 0.00 0.00 74 1012.8
20260503031329 50 341 0.0 1.0 0.00 0.00 0.00 75 1012.8
20260503030827 50 341 0.0 1.0 0.00 0.00 0.00 76 1012.9
20260503030326 49 341 0.0 2.0 0.00 0.00 0.00 76 1012.9
20260503025825 49 341 0.0 2.0 0.00 0.00 0.00 78 1013.0
20260503025313 48 341 0.0 1.0 0.00 0.00 0.00 80 1013.0
20260503024812 48 341 0.0 1.0 0.00 0.00 0.00 81 1013.1
20260503024339 48 341 0.0 1.0 0.00 0.00 0.00 81 1012.9
20260503023844 48 341 0.0 1.0 0.00 0.00 0.00 83 1013.1
20260503023323 48 341 0.0 0.0 0.00 0.00 0.00 84 1013.0
20260503022823 48 341 0.0 0.0 0.00 0.00 0.00 85 1013.0
20260503022349 48 341 0.0 0.0 0.00 0.00 0.00 84 1013.0
20260503021828 48 341 0.0 0.0 0.00 0.00 0.00 84 1012.8
20260503021327 48 341 0.0 0.0 0.00 0.00 0.00 84 1012.8
20260503020828 48 341 0.0 0.0 0.00 0.00 0.00 84 1013.0
20260503020330 48 341 0.0 0.0 0.00 0.00 0.00 84 1012.9
20260503015828 48 341 0.0 0.0 0.00 0.00 0.00 84 1012.8
20260503015320 48 341 0.0 0.0 0.00 0.00 0.00 83 1012.8
20260503014820 48 341 0.0 0.0 0.00 0.00 0.00 83 1012.8
20260503014320 48 341 0.0 0.0 0.00 0.00 0.00 82 1012.7
20260503013819 49 341 0.0 0.0 0.00 0.00 0.00 81 1012.8
20260503013318 49 341 0.0 0.0 0.00 0.00 0.00 80 1012.7
20260503012816 50 341 0.0 0.0 0.00 0.00 0.00 79 1012.7
20260503012317 50 341 0.0 0.0 0.00 0.00 0.00 77 1012.8
20260503011816 50 341 0.0 0.0 0.00 0.00 0.00 77 1012.7
20260503011316 50 341 0.0 0.0 0.00 0.00 0.00 79 1012.8
20260503010817 50 341 0.0 0.0 0.00 0.00 0.00 80 1012.8
20260503010320 50 341 0.0 0.0 0.00 0.00 0.00 81 1012.8
20260503005820 50 341 0.0 0.0 0.00 0.00 0.00 83 1012.8
20260503005319 50 341 0.0 0.0 0.00 0.00 0.00 82 1012.7
20260503004818 50 341 0.0 0.0 0.00 0.00 0.00 81 1012.5
20260503004317 50 341 0.0 0.0 0.00 0.00 0.00 81 1012.4
20260503003854 50 341 0.0 0.0 0.00 0.00 0.00 80 1012.3
20260503003334 51 341 0.0 0.0 0.00 0.00 0.00 80 1012.2
20260503002812 51 341 0.0 0.0 0.00 0.00 0.00 78 1012.1
20260503002312 51 341 0.0 0.0 0.00 0.00 0.00 79 1012.1
20260503001812 51 341 0.0 0.0 0.00 0.00 0.00 77 1012.1
20260503001335 51 341 0.0 0.0 0.00 0.00 0.00 76 1012.0
20260503000834 52 341 0.0 0.0 0.00 0.00 0.00 76 1011.9
20260503000332 52 341 0.0 0.0 0.00 0.00 0.00 76 1011.8
20260502235830 53 341 0.0 0.0 0.00 0.00 0.00 76 1011.8
20260502235312 53 341 0.0 0.0 0.00 0.00 0.00 74 1011.7
20260502234812 53 341 0.0 0.0 0.00 0.00 0.00 72 1011.6
20260502234337 54 341 0.0 0.0 0.00 0.00 0.00 71 1011.5
20260502233828 54 341 0.0 0.0 0.00 0.00 0.00 70 1011.4
20260502233327 55 341 0.0 0.0 0.00 0.00 0.00 70 1011.4
20260502232828 55 341 0.0 0.0 0.00 0.00 0.00 69 1011.3
20260502232327 56 341 0.0 0.0 0.00 0.00 0.00 67 1011.2
20260502231827 56 341 0.0 0.0 0.00 0.00 0.00 65 1011.1
20260502231349 57 341 0.0 0.0 0.00 0.00 0.00 64 1011.1
20260502230827 58 341 0.0 0.0 0.00 0.00 0.00 63 1011.1
20260502230328 58 341 0.0 0.0 0.00 0.00 0.00 63 1011.1
20260502225825 58 341 0.0 0.0 0.00 0.00 0.00 62 1011.0
20260502225323 59 341 0.0 0.0 0.00 0.00 0.00 62 1011.0
20260502224821 59 341 0.0 0.0 0.00 0.00 0.00 58 1011.0
20260502224320 59 341 0.0 1.0 0.00 0.00 0.00 59 1011.0
20260502223816 59 341 0.0 1.0 0.00 0.00 0.00 57 1011.0
20260502223315 59 341 0.0 1.0 0.00 0.00 0.00 56 1010.9
20260502222839 59 341 0.0 1.0 0.00 0.00 0.00 56 1010.9
20260502222351 60 341 0.0 1.0 0.00 0.00 0.00 56 1011.0
20260502221828 60 341 0.0 1.0 0.00 0.00 0.00 55 1010.9
20260502221327 61 341 0.0 1.0 0.00 0.00 0.00 53 1010.8
20260502220826 61 341 0.0 0.0 0.00 0.00 0.00 54 1011.0
20260502220352 61 341 0.0 1.0 0.00 0.00 0.00 53 1010.9
20260502215830 61 341 0.0 1.0 0.00 0.00 0.00 53 1010.9
20260502215329 61 341 0.0 1.0 0.00 0.00 0.00 53 1010.9
20260502214816 61 341 0.0 1.0 0.00 0.00 0.00 52 1011.0
20260502214334 61 341 0.0 2.0 0.00 0.00 0.00 51 1010.9
20260502213830 62 341 0.0 2.0 0.00 0.00 0.00 52 1011.1
20260502213329 62 341 0.0 1.0 0.00 0.00 0.00 51 1011.0
20260502212839 63 341 0.0 1.0 0.00 0.00 0.00 49 1011.1
20260502212317 63 341 0.0 2.0 0.00 0.00 0.00 48 1011.0
20260502211816 64 341 0.0 2.0 0.00 0.00 0.00 47 1011.1
20260502211316 63 341 0.0 1.0 0.00 0.00 0.00 52 1011.2
20260502210901 62 341 0.0 1.0 0.00 0.00 0.00 49 1011.0
20260502210329 62 341 0.0 3.0 0.00 0.00 0.00 51 1011.2
20260502205827 61 341 0.0 3.0 0.00 0.00 0.00 49 1011.2
20260502205326 61 341 1.0 1.0 0.00 0.00 0.00 51 1011.0
20260502204822 61 341 0.0 1.0 0.00 0.00 0.00 54 1011.0
20260502204319 61 341 0.0 1.0 0.00 0.00 0.00 55 1011.1
20260502203814 60 341 0.0 1.0 0.00 0.00 0.00 53 1011.2
20260502203314 60 341 0.0 1.0 0.00 0.00 0.00 53 1011.2
20260502202813 60 341 0.0 1.0 0.00 0.00 0.00 54 1011.2
20260502202312 60 341 0.0 1.0 0.00 0.00 0.00 53 1011.2
20260502201837 60 341 0.0 2.0 0.00 0.00 0.00 53 1011.3
20260502201335 60 341 0.0 2.0 0.00 0.00 0.00 52 1011.1
20260502200833 60 341 0.0 1.0 0.00 0.00 0.00 50 1011.3
20260502200333 61 341 0.0 3.0 0.00 0.00 0.00 52 1011.3
20260502195832 61 341 1.0 3.0 0.00 0.00 0.00 52 1011.2
20260502195330 61 341 0.0 2.0 0.00 0.00 0.00 54 1011.3
20260502194828 61 341 0.0 2.0 0.00 0.00 0.00 53 1011.4
20260502194350 60 341 0.0 6.0 0.00 0.00 0.00 53 1011.4
20260502193828 60 341 0.0 6.0 0.00 0.00 0.00 51 1011.4
20260502193351 61 341 1.0 3.0 0.00 0.00 0.00 51 1011.4
20260502192845 61 341 1.0 3.0 0.00 0.00 0.00 52 1011.7
20260502192324 60 341 0.0 2.0 0.00 0.00 0.00 58 1011.7